Theta_e
304 302 301 301 302 303 302 302 303 304 305 307 309 310 310 310 311 311 311 311 311 311 310 310 310 310 312 315 316 318 320 324 326 327 327 329 332 333 333 333 333 332
303 302 301 301 302 303 302 303 305 306 307 308 309 310 310 311 312 313 313 313 312 311 311 312 311 310 311 313 316 317 317 320 323 325 325 327 330 332 332 333 333 333
303 302 301 301 302 302 302 305 308 310 310 310 310 311 311 312 313 313 313 313 313 313 313 313 312 311 310 312 314 317 318 319 320 322 324 325 328 330 331 332 333 333
304 304 304 303 303 303 304 307 309 310 310 311 311 311 312 312 312 312 313 313 313 313 313 313 313 312 311 312 314 317 320 320 319 319 322 325 327 328 329 330 332 332
306 306 306 306 305 305 306 308 309 309 310 310 310 311 311 312 312 312 312 312 312 313 313 313 313 313 312 312 313 316 320 321 319 317 320 323 325 326 326 327 329 331
306 306 305 306 307 307 308 308 309 309 309 309 310 310 311 311 311 311 312 312 312 312 312 313 313 313 313 313 313 315 318 321 321 319 319 322 323 324 326 326 328 329
307 306 306 307 308 308 309 309 309 309 308 308 309 309 308 308 309 309 311 311 312 312 312 312 312 313 313 313 314 315 316 319 322 322 321 321 323 324 325 327 328 329
306 305 306 307 308 308 309 309 309 309 308 308 307 306 306 306 306 307 308 310 311 312 312 312 312 313 314 314 314 315 316 317 320 322 322 322 324 324 324 326 327 327
306 306 307 308 308 309 309 308 307 306 306 305 305 304 304 305 305 306 307 308 309 311 312 312 312 312 313 314 315 315 316 317 319 321 322 322 323 324 324 325 326 326
306 307 308 308 307 307 306 305 304 304 304 304 304 304 304 304 305 306 307 308 308 310 311 312 312 312 312 313 313 315 316 317 318 319 321 322 322 324 325 326 327 328
307 308 308 306 304 304 304 303 303 303 303 304 304 304 304 305 305 306 307 307 307 308 309 311 311 311 311 312 312 313 315 317 318 319 321 322 323 324 325 326 327 328
308 308 306 304 304 304 304 304 304 304 304 304 305 305 305 305 306 306 306 306 307 307 307 309 310 310 311 311 312 312 314 316 317 319 319 320 321 324 325 326 326 327
308 306 304 304 304 304 304 304 304 304 304 305 305 306 306 306 306 306 306 306 306 306 307 307 308 309 310 310 311 312 312 314 316 317 318 318 320 323 324 325 325 326
307 305 304 305 304 304 304 303 303 304 305 305 306 306 306 306 306 306 305 305 306 306 306 306 307 308 309 309 310 311 312 313 314 316 317 318 319 322 324 324 325 326
306 305 305 305 304 303 303 303 304 305 306 305 305 305 305 305 305 305 305 305 305 305 305 306 306 306 308 309 310 311 312 313 313 314 316 317 318 320 322 324 325 326
306 305 305 304 303 303 303 304 305 305 305 305 305 304 304 304 304 304 304 304 304 304 304 305 305 306 307 307 308 309 309 311 312 313 315 316 317 319 321 323 324 326
306 305 305 304 303 304 304 305 305 305 304 304 304 304 303 303 303 303 303 303 303 303 303 304 305 305 306 306 306 307 307 308 309 312 313 315 317 318 321 323 324 325
306 305 305 304 304 304 304 304 304 303 303 302 302 302 302 302 302 302 302 302 302 303 303 303 304 304 304 304 305 305 306 306 307 309 312 314 315 317 319 321 323 324
305 305 304 304 304 304 303 303 303 302 301 301 301 300 300 301 301 301 301 301 301 302 302 302 303 303 303 304 304 305 305 305 306 308 310 312 315 316 317 319 321 323
305 304 304 304 303 303 303 302 302 301 301 300 300 300 300 300 300 300 300 300 300 300 301 302 302 302 302 304 305 305 305 305 305 307 308 311 314 315 316 317 319 320
304 304 304 303 303 302 302 302 301 301 300 300 299 299 299 299 299 299 299 299 299 299 300 300 301 301 301 303 304 305 305 305 305 306 308 309 312 314 315 316 317 318
303 304 304 303 303 302 302 302 301 301 300 299 299 299 298 298 298 298 298 298 298 298 299 299 299 299 299 300 302 303 304 304 305 305 307 308 310 313 314 315 316 317
303 304 303 303 303 302 302 301 301 300 300 299 299 298 297 297 297 297 297 297 297 297 297 298 298 298 298 299 301 301 301 302 303 303 305 307 308 310 313 314 315 316
304 304 303 302 302 302 302 301 300 300 299 299 298 297 297 296 296 296 296 296 296 296 296 297 297 297 297 298 299 299 300 300 301 301 302 303 305 308 310 312 314 315
304 303 302 302 302 302 301 301 300 299 299 298 297 297 296 296 296 296 295 295 295 295 295 296 296 297 296 296 297 298 299 299 299 300 300 301 303 305 308 310 311 313
303 303 302 302 302 301 301 300 300 299 299 298 297 297 296 296 295 295 295 295 295 295 295 295 295 296 295 295 296 297 298 298 299 300 301 301 302 303 305 308 310 312
Wind_Speed
25 24 21 19 17 16 15 15 14 15 16 16 18 19 20 21 22 22 23 25 26 27 26 27 29 31 32 33 34 32 31 30 30 30 32 35 36 36 36 36 37 37
25 24 23 20 18 17 16 15 14 15 16 17 18 19 21 22 20 18 18 20 22 25 24 23 25 29 32 33 33 33 32 32 31 30 31 33 35 37 38 38 37 37
23 23 23 21 19 18 18 15 13 13 14 15 16 17 19 19 16 15 16 17 18 20 19 19 21 26 29 32 33 33 32 32 32 32 31 31 32 36 39 40 39 39
21 20 20 20 19 19 18 14 12 12 13 13 14 14 15 15 15 15 16 17 18 18 17 18 21 23 26 29 31 31 31 32 33 32 32 31 32 34 37 37 39 39
19 17 17 16 17 17 16 14 13 13 13 14 14 14 15 15 16 17 17 18 19 19 18 19 20 22 24 26 28 29 29 31 33 34 33 32 33 35 35 35 35 38
17 18 17 15 14 14 14 14 15 15 15 16 15 15 16 16 17 18 18 19 21 20 20 20 20 21 23 24 26 28 29 29 30 33 34 34 34 35 35 33 32 33
17 18 17 14 14 14 14 13 14 15 15 17 18 19 21 21 21 20 19 20 21 21 21 20 20 20 21 23 25 26 27 28 29 31 34 34 34 35 34 32 31 32
18 17 15 14 14 15 14 13 14 15 16 18 20 22 23 25 24 23 22 21 21 22 21 21 21 21 21 22 24 25 26 27 28 30 32 34 34 35 35 33 32 32
16 15 14 14 14 14 15 15 17 18 19 20 21 22 24 25 25 24 22 22 23 23 21 20 21 22 22 23 23 25 26 27 28 29 32 34 35 36 35 34 34 34
14 13 13 14 15 15 17 19 20 20 20 21 22 23 24 25 24 21 19 21 22 22 21 21 21 21 22 23 23 24 25 27 28 29 31 34 36 36 35 34 34 34
13 13 14 15 17 17 18 19 20 20 21 22 23 24 24 24 22 19 18 19 21 22 22 22 22 22 22 23 24 24 24 25 26 29 31 33 35 35 35 35 34 34
13 14 15 17 18 18 20 21 22 23 23 23 23 23 23 22 20 19 20 21 21 22 23 23 23 22 23 23 23 23 24 24 24 27 32 35 36 35 35 35 35 35
14 16 17 19 21 22 24 25 26 25 24 23 22 21 21 21 20 20 21 21 21 21 22 23 23 22 23 23 22 23 24 25 26 27 30 33 35 36 36 37 37 36
15 17 20 22 24 25 26 27 26 24 21 20 20 19 19 19 20 21 21 20 20 20 20 21 22 22 22 22 22 22 22 25 29 30 30 32 35 37 36 36 37 37
16 19 22 24 25 26 27 26 23 20 18 18 19 19 18 18 19 20 20 20 20 20 20 20 21 23 22 20 21 22 22 26 31 32 31 32 35 38 37 35 35 35
16 20 23 25 26 27 27 25 21 18 19 19 19 19 18 18 18 18 19 19 19 20 20 19 19 20 20 20 23 25 27 30 32 32 32 32 32 35 37 37 33 30
16 21 23 25 26 27 27 24 19 18 19 19 18 18 18 18 18 18 18 19 19 20 20 20 19 18 18 21 24 27 30 31 32 33 34 33 31 30 31 33 30 26
18 22 23 23 25 26 27 24 19 17 18 17 18 17 18 18 18 17 18 18 19 20 20 20 20 20 20 22 24 26 28 30 31 33 34 34 33 31 28 28 27 24
19 21 21 22 24 26 26 22 17 17 17 16 17 16 17 18 18 17 18 19 20 20 19 18 19 20 21 23 24 25 27 29 31 32 34 35 34 33 31 28 27 25
19 19 20 21 23 24 23 19 17 17 17 16 16 16 17 18 17 18 18 19 20 20 19 18 17 19 22 24 24 25 27 30 31 32 34 36 35 34 33 31 29 29
19 18 19 21 22 22 20 18 17 18 17 17 16 16 17 17 17 18 18 18 18 19 19 19 17 19 24 25 24 25 26 29 32 33 34 36 37 35 34 32 31 31
17 17 19 20 20 19 19 18 17 18 17 17 16 17 17 16 16 17 17 18 18 18 19 19 18 19 24 26 25 24 25 27 29 30 33 36 37 36 35 34 32 31
15 16 17 18 18 18 18 17 17 18 17 17 17 17 16 16 16 16 16 17 18 18 18 19 19 19 21 23 23 23 23 25 25 26 28 32 35 37 36 35 35 34
13 13 14 15 16 17 17 16 17 18 17 17 17 17 16 16 16 16 16 16 17 18 18 19 20 19 19 21 22 22 23 23 23 24 24 25 27 31 34 35 36 37
10 11 12 13 14 15 15 15 17 17 17 17 17 17 16 16 16 16 17 16 16 16 18 19 19 19 19 20 22 23 24 24 24 25 26 24 23 23 26 30 33 34
9 10 12 12 13 13 13 15 16 16 17 18 17 16 16 16 16 16 16 16 16 16 17 18 20 20 20 21 22 23 22 22 23 25 27 28 26 23 22 23 25 28
Wind_Direction
344 343 340 335 330 325 322 321 317 314 314 314 313 310 309 308 306 304 302 299 296 292 282 269 263 259 254 251 251 253 256 260 261 259 257 255 252 250 247 244 244 246
342 341 338 333 327 321 318 316 312 312 313 313 314 312 309 307 303 300 299 297 297 296 289 275 262 257 255 253 251 252 252 254 258 260 261 261 257 253 250 247 245 245
339 338 336 332 325 319 317 313 306 306 306 308 309 308 308 305 298 296 297 297 297 296 292 283 270 259 255 254 253 252 251 250 252 255 258 260 258 255 253 250 248 246
336 335 332 327 320 317 315 307 300 301 300 301 303 302 302 300 295 293 293 293 295 295 292 287 281 271 259 255 254 253 252 250 248 250 253 255 256 257 255 252 251 249
332 327 324 318 314 314 310 302 299 298 296 297 298 300 299 296 293 291 289 291 292 293 293 289 284 280 270 260 256 254 254 252 248 247 250 252 255 258 258 256 253 250
327 323 320 315 311 309 304 300 298 294 295 298 298 299 300 297 294 292 288 289 290 289 291 290 284 281 276 268 261 256 255 254 250 247 248 251 253 256 258 259 256 253
321 321 319 315 312 308 302 299 296 293 296 299 301 304 307 305 301 295 288 285 287 287 287 288 285 280 276 272 267 261 256 255 253 250 248 248 251 253 255 256 257 256
320 320 319 317 314 309 304 299 296 297 299 301 305 310 311 308 305 300 292 284 282 282 282 284 284 281 277 272 268 265 260 256 253 251 249 247 249 250 250 252 255 257
318 319 319 318 315 309 307 309 310 311 311 309 311 313 311 308 304 299 293 286 280 278 277 278 280 280 278 273 269 267 264 259 254 253 250 247 248 249 250 251 252 253
317 320 318 320 323 321 319 322 321 320 318 317 317 316 313 309 303 297 292 287 282 277 274 274 276 278 278 275 270 266 265 262 258 255 253 250 248 248 249 249 249 249
321 323 322 328 334 333 330 329 326 323 321 320 318 316 312 307 303 298 294 290 286 280 275 273 273 274 276 276 273 268 265 264 261 257 256 252 250 249 248 248 248 248
327 328 332 338 340 338 335 333 330 327 323 319 314 309 306 304 301 298 295 292 289 284 278 274 271 272 274 275 275 272 268 266 264 261 256 251 250 251 249 247 247 248
332 336 341 342 340 337 335 332 330 326 320 313 306 301 300 300 298 297 296 293 290 287 283 278 274 272 271 272 273 272 269 266 262 259 257 251 248 248 248 248 247 247
334 340 343 341 338 336 333 330 326 320 312 306 301 298 296 294 294 294 295 294 291 288 285 282 278 273 271 270 272 272 268 264 260 260 262 259 252 246 244 246 247 246
334 339 341 339 337 335 331 327 321 314 308 304 301 298 295 293 292 292 293 293 292 290 287 284 279 274 270 267 267 267 264 263 264 265 267 267 261 251 246 246 246 244
333 338 339 338 336 335 331 325 318 310 306 303 299 296 294 293 290 289 290 291 291 290 288 285 281 276 270 261 259 262 265 267 269 267 266 268 266 257 250 249 246 242
332 336 338 336 336 335 329 322 316 309 305 301 298 295 293 292 289 287 289 291 290 289 287 285 283 277 270 265 264 266 269 271 270 267 265 266 266 260 253 248 244 241
331 335 337 335 335 334 327 321 318 313 308 304 299 296 294 293 290 287 288 291 291 289 287 285 283 280 276 274 272 271 271 271 269 266 264 262 261 262 259 250 245 247
331 335 335 334 335 333 327 325 324 320 315 312 306 302 301 298 293 289 290 292 292 290 288 286 285 284 280 277 275 272 269 268 266 263 262 260 258 260 262 256 249 250
331 333 334 336 337 334 329 327 326 323 320 317 312 308 305 302 297 294 293 293 293 292 289 288 287 284 280 280 282 278 273 269 266 261 259 259 258 257 260 260 256 253
331 333 337 339 338 335 333 329 326 324 322 319 314 311 308 305 301 298 297 295 294 293 291 290 288 284 283 286 287 283 280 277 272 265 259 256 256 255 256 259 260 258
330 333 338 340 339 338 335 330 328 326 324 322 318 313 310 306 303 302 300 298 296 295 293 291 289 286 285 288 290 288 287 285 280 274 266 258 254 252 253 255 257 258
332 335 337 340 341 338 332 330 333 332 329 326 322 317 314 312 310 307 304 302 300 298 296 294 293 291 288 290 293 295 293 289 284 280 274 266 258 252 250 251 253 255
333 335 334 335 335 332 329 332 337 337 334 330 325 321 319 316 315 312 308 305 303 301 300 299 299 298 296 294 294 294 293 289 284 280 277 274 267 257 250 249 251 253
330 329 328 329 329 328 331 336 339 338 336 332 328 324 321 319 318 316 313 310 308 306 305 304 302 302 301 298 295 293 291 287 283 279 274 270 270 266 258 253 251 253
323 323 323 326 328 330 335 338 339 339 337 335 333 328 324 322 322 320 319 318 314 309 307 305 305 306 306 302 297 294 292 285 280 279 276 271 270 268 264 259 256 255